sat.trackr.live / text

‹ back to catalog

SBIRS GEO-2 (USA 241)

NORAD 39120 · 2013-011A

PAYLOAD ACTIVE UNKNOWN

§ Identity

Operator
Country
US
Launch date
2013-03-19
Launch site
AFETR
Launch vehicle
Mass (kg)
RCS (m²)
13.59

Purposes: comms

External: N2YO · Heavens-Above · Gunter

§ Orbital elements

Epoch: 2026-09-20T01:03:49.760352Z

Period
1,436.10 min
Inclination
4.6921°
Eccentricity
0.0002477
Mean motion
1.00271410 rev/d
Perigee alt
35,776.3 km
Apogee alt
35,797.1 km
Semi-major
42,164.8 km
B*
0.0000e+0
RAAN
52.4439°
Arg perigee
144.6123°
Mean anomaly
81.0491°
Rev number
4,948

§ Raw data

SBIRS GEO-2 (USA 241)1 39120U 13011A   26263.04432593 -.00000147  00000+0  00000+0 0  99912 39120   4.6921  52.4439 0002477 144.6123  81.0491  1.00271410 49481

JSON: /api/v1/satellites/39120 · /tle

For live sub-satellite position, see the globe view (requires WebGL).

§ Visibility from observer

Set your observer location to see the next 7 days of passes ≥ 10°. The values pass through the URL so the page stays shareable.

No JS? Fill the form by hand. The geolocation button needs JavaScript.